Find Starlink 34470

NORAD ID: 64703 Int'l Des: 2025-142 Owner: SPXS Country: US Constellation: starlink operational
LEOCIRCULAR

現在のビュー

3D地球を読み込み中...

About Starlink 34470

Starlink 34470 (NORAD 64703) is a starlink constellation satellite (v2 mini) launched Jun 28, 2025 by SPXS of US. It operates in LEO, CIRCULAR orbit with a mass of 575.00 kg.

Starlink 34470について

説明を読み込み中...

次回通過

Passes for default location (London). Set your location on the main map for personalized predictions.

高度履歴

Loading altitude history...

軌道要素

1 64703U 25142H 26190.85170209 -.00003164 00000-0 -25748-3 0 9999
2 64703 70.0016 6.2466 0002891 267.5067 92.5761 14.98328619 57769
Epoch: Jul 9, 2026 • Age: 20 hours

現在のステータス

高度 574.5 km
遠地点 / 近地点 N/A
速度 7.57 km/s
衛星直下点 -0.94°S, 8.78°E
打ち上げ日 Jun 28, 2025
運用期間 1 year
タイプ internet

技術仕様

分類 Payload
質量 575.00 kg
乾燥質量 530.00 kg
総質量 575.00 kg
長さ 0.30 m
直径 4.10 m
スパン 29.00 m
形状 Box + pan
製造者 SPXS
バスタイプ Starlink V2MO
フェーズステータス In Orbit
所有者/国 SPXS/US

Most Searched